Погода в Вязьме

Погода в Вязьме : погода сейчас, прогноз погоды и архив. Всё, что Вы хотите узнать о погоде в Вязьме!

Поиск расширенной информации на нашем сайте:

Полезная информация:

Другие новости

Новости СМИ2

Главная страница сайта

Новости сайта

03.07.2017

Напоминаем, что на нашем специализированном сайте Метеоцентр.Азия вы можете получить высокодетализированные автоматические прогнозы погоды по пунктам России, СНГ и мира в авиационном формате (включающие направление и скорость ветра, видимость, явления погоды, количество и форму облачности, нижнюю и верхнюю границу облачности).

Рекомендуем:

Погода в Вязьме - сегодня

Время (UTC), дата Ветер
(°,м/с) 
Видим.   Явления Облачность Т
(°С)
Тd
(°С)
f(%) Тe
(°С)
Pmin
(гПа)
dP
(гПа)
Po
(мм)
O2
(г/м3)
Тmin Tmax R s Состояние
почвы
21 18.05.19 тихо ()   10 км    ясно 
+8.2 +6.7 90 +8  1018.2  0.2  741  289           
00 19.05.19 тихо ()   4000 м  дымка  1/0 верхняя 
[Ci fib]
+6.1 +5.4 95 +6  1018.8  0.4  741  291           
03 19.05.19 360 (С) 4000 м  дымка  1/0 верхняя 
[Ci fib]
+8.8 +7.5 92 +10  1019.1  0.6  742  288  +5.4         
06 19.05.19 070 (В) 10 км    1/0 верхняя 
[Ci fib]
+17 +5.4 46 +17  1019.6  1.3  743  281  +5.4        влажная 
09 19.05.19 020 (С) 10 км    3/0 верхняя 
[Ci fib]
+20.7 +4.6 35 +21  1019.2  743  278           
12 19.05.19 010 (С) 10 км    4/0 верхняя 
[Ci fib]
+22.2 +3.6 30 +22  1018.6  -0.5  743  276           
15 19.05.19 040 (СВ) 10 км    6/0 верхняя 
[Cc]
+22.6 +2.9 27 +23  1018.1  -0.4  742  276           
18 19.05.19 тихо ()   10 км    4/0 верхняя 
[Ci fib]
+14.2 +8.7 69 +14  1019.1  0.1  742  283    +23.1       
21 19.05.19 тихо ()   4000 м  дымка  3/0 верхняя 
[Ci fib]
+8.6 +7.2 91 +9  1020.2  0.5  743  289           
00 20.05.19 тихо ()   4000 м  дымка  3/0 верхняя 
[Ci fib]
+7 +6.2 95 +7  1021.1  0.6  743  291           
03 20.05.19 тихо ()   4000 м  дымка  3/0 верхняя 
[Ci fib]
+10.6 +8.5 87 +11  1021.3  0.6  744  287  +6         
06 20.05.19 220 (ЮЗ) 10 км    3/0 верхняя 
[Ci fib]
+19.8 +8.9 49 +21  1021  0.6  744  278  +6        влажная 
09 20.05.19 300 (СЗ) 10 км    3/3 600 м верхняя 
[Cu hum|Ci fib]
+22.7 +5.7 33 +23  1020.5  -0.2  744  276           
12 20.05.19 250 (З) 10 км    4/3 1000 м верхняя 
[Cu hum|Ci fib]
+25 +4.3 26 +25  1019.4  -0.9  743  274           
15 20.05.19 180 (Ю) 10 км    3/1 1000 м верхняя 
[Cu hum|Ci fib]
+25.3 +4 25 +25  1018.3  -1  743  273           
18 20.05.19 080 (В) 10 км    3/0 средняя, верхняя 
[Ac trans|Ci fib]
+16.2 +9.7 65 +19  1019  -0.2  742  281    +25.3       
21 20.05.19 120 (ЮВ) 10 км    ясно 
+15.6 +7 57 +17  1019.6  0.6  743  282           
00 21.05.19 тихо ()   4000 м  дымка  3/0 средняя 
[Ac trans]
+8.9 +7.6 92 +9  1020.4  743  289           
03 21.05.19 тихо ()   10 км    4/0 верхняя 
[Ci fib]
+14.3 +9.1 71 +15  1019.6  -0.2  743  283  +7.4         
06 21.05.19 220 (ЮЗ) 10 км    4/0 верхняя 
[Ci fib]
+19.8 +8.1 47 +21  1019  743  278  +7.4        влажная 
09 21.05.19 190 (Ю) 10 км    4/1 1000 м верхняя 
[Cu hum|Ci fib]
+23.9 +6.9 34 +24  1017.9  -0.7  742  274           
12 21.05.19 200 (Ю) 10 км    4/3 1000 м верхняя 
[Cu hum|Ci fib]
+25.1 +4.9 27 +25  1016.2  -1.6  741  273           
15 21.05.19 200 (Ю) 10 км    3/1 1000 м верхняя 
[Cu hum|Ci fib]
+24.2 +2.2 24 +24  1014.5  -1.7  740  273           
18 21.05.19 160 (Ю) 10 км    3/0 верхняя 
[Ci fib]
+16.9 +6 49 +18  1014.6  -1.1  739  280    +25.3       
21 21.05.19 160 (Ю) 10 км    3/0 верхняя 
[Ci fib]
+9.8 +7.4 85 +11  1015.1  -0.3  739  286           
Время (UTC), дата Ветер
(°,м/с) 
Видим.   Явления Облачность Т
(°С)
Тd
(°С)
f(%) Тe
(°С)
Pmin
(гПа)
dP
(гПа)
Po
(мм)
O2
(г/м3)
Тmin Tmax R s Состояние
почвы

Для получения пояснительной информации подведите курсор к названию столбца.

ПОГОДА в Вязьме - архив

Всё, что Вы хотите узнать о погоде в Вязьме - удобно и подробно!

Выберите нужную дату (начиная с 1 января 2018* года) и нажмите кнопку "Найти".
Будут отображены архивные сводки погоды по пункту Вязьма, начиная с указанной даты.


Отображать данные в формате CSV (для использования в таблицах Excel)


Внимание! Наш архив погоды предназначен исключительно для личного некоммерческого использования в познавательных целях. Если Вам необходимы официальные справки о состоянии погоды (для производственных, юридических, коммерческих и т.п. целей), обращайтесь в органы Росгидромета.

*Примечание: данная дата относится к архиву по метеостанциям СССР (Россия, СНГ, Балтия).
Архив по метеостанциям Зарубежной Европы и Азии (кроме Китая) хранится 10 дней, по другим регионам земного шара (Китай, Африка, Америка, Австралия, Океания) - 1 день.

Вязьма - район местоположения метеостанции


Название, широта, долгота, высота метеостанции:
Вязьма 55.2°ш. 34.4°д. 251 м над ур. моря [Российская Федерация]

Дополнительная информация

В oтличие oт бoльшинства пoгoдных сайтoв мы публикуем пoдрoбную метеoинфoрмацию в детальнoм прoфессиoнальнoм фoрмате.

Характеристики температуры и влажнoсти вoздуха измеряются на высoте 2 м в тени вдали oт зданий и деревьев.
Скoрoсть ветра измеряется на высoте 10 м (на урoвне рoста челoвека скoрoсть ветра ниже в 1.5-2 раза). Если метеoстанция нахoдится в гoрoде или в лесу, тo скoрoсть ветра занижена на 2-4 м/с пo сравнению с oткрытым местoм. Скoрoсть ветра над акватoриями крупных рек и oзёр, а также на вершинах хoлмoв на 2-5 м/с выше, чем в oбычных услoвиях.
Атмoсфернoе давление в разных тoчках местнoсти мoжет значительнo oтличаться oт давления на метеoстанции, в зависимoсти oт услoвий рельефа (при пoдъёме на 10 м давление пoнижается примернo на 1 мм рт.ст.).